Hanamaulu, HI

4:01 PM HST on September 28, 2016 (GMT -1000)
Lihue

Weather History for PHLI - May, 2014

Change the Weather History Date:

Sunday, May 18, 2014

  Actual Average Record
Temperature  
Mean Temperature 76 °F 76 °F  
Max Temperature 83 °F 81 °F 85 °F (1992)
Min Temperature 68 °F 71 °F 60 °F (1966)
Degree Days  
Heating Degree Days 0 0  
Month to date heating degree days 0 0  
Since 1 July heating degree days 0 0  
Cooling Degree Days 11 11  
Month to date cooling degree days 191 185  
Year to date cooling degree days 1067 1089  
Growing Degree Days 25 (Base 50)    
Moisture  
Dew Point 69 °F    
Average Humidity 78    
Maximum Humidity 90    
Minimum Humidity 65    
Precipitation  
Precipitation T in 0.07 in 0.89 in (1967)
Month to date precipitation 0.47 1.35  
Year to date precipitation 13.45 15.12  
Snow  
Snow 0.00 in - - ()
Month to date snowfall 0.0  
Since 1 July snowfall 0.0  
Snow Depth 0.00 in    
Sea Level Pressure  
Sea Level Pressure 29.98 in    
Wind  
Wind Speed 8 mph (SSW)    
Max Wind Speed 16 mph    
Max Gust Speed 21 mph    
Visibility 10 miles    
Events      
T = Trace of Precipitation, MM = Missing Value Source: NWS Daily Summary

Daily Weather History Graph

Daily Weather History Graph

Search for Another Location

Airport or City:

Trip Planner

Search our weather history database for the weather conditions in past years. The results will help you decide how hot, cold, wet, or windy it might be!

Date:

Astronomy

May. 18, 2014 Rise Set
Actual Time 5:56 AM HST 7:11 PM HST
Civil Twilight 5:32 AM HST 7:35 PM HST
Nautical Twilight 5:03 AM HST 8:03 PM HST
Astronomical Twilight 4:34 AM HST 8:33 PM HST
Moon 11:17 PM HST (5/18) 9:53 AM HST (5/18)
Length of Visible Light 14h 02m
Length of Day
13h 14m
Waning Gibbous, 79% of the Moon is Illuminated
May 18
Waning Gibbous
May 21
Last Quarter
May 28
New
Jun 5
First Quarter
Jun 12
Full

Hourly Weather History & Observations

Time (HST) Temp. Heat Index Dew Point Humidity Pressure Visibility Wind Dir Wind Speed Gust Speed Precip Events Conditions
12:53 AM 70.0 °F - 66.0 °F 87% 29.99 in 10.0 mi West 5.8 mph - N/A   Partly Cloudy
1:53 AM 69.1 °F - 66.0 °F 90% 29.97 in 10.0 mi West 5.8 mph - N/A   Clear
2:53 AM 68.0 °F - 64.9 °F 90% 29.96 in 10.0 mi West 5.8 mph - N/A   Clear
3:53 AM 69.1 °F - 66.0 °F 90% 29.95 in 10.0 mi West 4.6 mph - N/A   Clear
4:53 AM 68.0 °F - 64.9 °F 90% 29.96 in 10.0 mi West 9.2 mph - N/A   Clear
5:53 AM 68.0 °F - 64.9 °F 90% 29.96 in 10.0 mi WNW 6.9 mph - N/A   Partly Cloudy
6:53 AM 71.1 °F - 64.9 °F 81% 29.98 in 10.0 mi West 4.6 mph - N/A   Scattered Clouds
7:53 AM 73.0 °F - 66.0 °F 79% 29.99 in 10.0 mi WNW 5.8 mph - N/A   Mostly Cloudy
8:15 AM 75.2 °F - 68.0 °F 78% 30.01 in 10.0 mi West 3.5 mph - N/A   Overcast
8:53 AM 79.0 °F - 70.0 °F 74% 30.01 in 10.0 mi East 4.6 mph - N/A   Mostly Cloudy
9:02 AM 77.0 °F - 69.8 °F 78% 30.02 in 10.0 mi East 5.8 mph - N/A   Mostly Cloudy
9:26 AM 80.6 °F 84.6 °F 71.6 °F 74% 30.02 in 10.0 mi East 5.8 mph - N/A   Mostly Cloudy
9:53 AM 78.1 °F - 69.1 °F 74% 30.01 in 10.0 mi SSE 5.8 mph - N/A   Mostly Cloudy
10:53 AM 79.0 °F - 71.1 °F 77% 30.00 in 10.0 mi East 8.1 mph - N/A   Mostly Cloudy
11:53 AM 80.1 °F 83.6 °F 71.1 °F 74% 29.99 in 10.0 mi ESE 11.5 mph - N/A   Mostly Cloudy
12:53 PM 80.1 °F 83.6 °F 71.1 °F 74% 29.98 in 10.0 mi SE 13.8 mph - N/A   Mostly Cloudy
1:22 PM 82.4 °F 87.2 °F 71.6 °F 70% 29.97 in 10.0 mi SE 13.8 mph 18.4 mph N/A   Mostly Cloudy
1:29 PM 82.4 °F 87.2 °F 71.6 °F 70% 29.97 in 10.0 mi SE 13.8 mph 18.4 mph N/A   Mostly Cloudy
1:40 PM 82.4 °F 87.2 °F 71.6 °F 70% 29.97 in 10.0 mi SSE 11.5 mph - N/A   Scattered Clouds
1:53 PM 82.0 °F 85.9 °F 70.0 °F 67% 29.96 in 10.0 mi South 13.8 mph - N/A   Partly Cloudy
2:53 PM 80.1 °F 83.2 °F 70.0 °F 71% 29.96 in 10.0 mi South 11.5 mph - 0.00 in   Overcast
3:53 PM 79.0 °F - 71.1 °F 77% 29.95 in 10.0 mi South 8.1 mph - N/A   Overcast
4:53 PM 80.1 °F 83.2 °F 70.0 °F 71% 29.95 in 10.0 mi South 10.4 mph - N/A   Overcast
5:00 PM 80.6 °F 83.9 °F 69.8 °F 70% 29.95 in 10.0 mi South 9.2 mph - N/A   Overcast
5:53 PM 78.1 °F - 69.1 °F 74% 29.95 in 10.0 mi South 8.1 mph - N/A   Clear
6:53 PM 75.9 °F - 69.1 °F 79% 29.96 in 10.0 mi South 5.8 mph - N/A   Clear
7:53 PM 75.9 °F - 69.1 °F 79% 29.97 in 10.0 mi Calm Calm - N/A   Scattered Clouds
8:53 PM 75.0 °F - 69.1 °F 82% 29.98 in 10.0 mi WNW 3.5 mph - N/A   Mostly Cloudy
9:53 PM 73.0 °F - 70.0 °F 90% 29.99 in 10.0 mi West 4.6 mph - N/A   Partly Cloudy
10:53 PM 72.0 °F - 69.1 °F 91% 29.99 in 10.0 mi West 4.6 mph - N/A   Clear
11:53 PM 70.0 °F - 66.9 °F 90% 29.98 in 10.0 mi WNW 6.9 mph - N/A   Clear